DW8661 Weather Reports


time (UTC)temp
F
wind
direction
speed
knots
gust
knots
rain 1hr
in
rain 24hr
in
rain mn
in
humidity
%
barometer
mb
20260507113059 64 172 2.6 6.1 0.00 0.00 0.00 54 1011.9
20260507111600 64 136 0.9 5.2 0.00 0.00 0.00 56 1012.2
20260507110059 62 107 3.5 8.7 0.00 0.00 0.00 58 1012.3
20260507104559 62 172 1.7 6.1 0.00 0.00 0.00 59 1012.5
20260507103114 60 161 1.7 7.0 0.00 0.00 0.00 61 1012.7
20260507101603 60 131 0.9 8.7 0.00 0.00 0.00 63 1012.9
20260507100113 59 318 2.6 8.7 0.00 0.00 0.00 63 1012.9
20260507100002 59 3 3.5 8.7 0.00 0.00 0.00 63 1013.0
20260507094501 58 124 0.9 5.2 0.00 0.00 0.00 65 1013.0
20260507093102 58 94 3.5 7.0 0.00 0.00 0.00 65 1013.0
20260507093001 58 71 3.5 7.0 0.00 0.00 0.00 65 1013.0
20260507091601 58 316 0.9 5.2 0.00 0.00 0.00 64 1013.1
20260507090001 58 298 1.7 6.1 0.00 0.00 0.00 64 1012.9
20260507084602 57 62 0.9 9.6 0.00 0.00 0.00 68 1013.0
20260507083119 56 20 1.7 7.0 0.00 0.00 0.00 68 1013.0
20260507081605 55 69 1.7 5.2 0.00 0.00 0.00 70 1013.0
20260507080059 55 23 4.3 8.7 0.00 0.00 0.00 70 1012.9
20260507074621 54 18 2.6 8.7 0.00 0.00 0.00 71 1012.9
20260507073104 54 6 2.6 5.2 0.00 0.00 0.00 71 1012.9
20260507071559 54 55 2.6 8.7 0.00 0.00 0.00 71 1013.0
20260507070104 54 324 4.3 9.6 0.00 0.00 0.00 71 1012.9
20260507064602 53 30 2.6 7.8 0.00 0.00 0.00 71 1012.8
20260507063100 54 45 0.9 5.2 0.00 0.00 0.00 71 1012.6
20260507061601 53 29 3.5 7.0 0.00 0.00 0.00 71 1012.6
20260507060100 53 37 1.7 7.0 0.00 0.00 0.00 71 1012.5
20260507060007 53 27 1.7 7.0 0.00 0.00 0.00 72 1012.5
20260507054559 53 49 2.6 11.3 0.00 0.00 0.00 72 1012.3
20260507053100 53 26 6.1 9.6 0.00 0.00 0.00 72 1012.2
20260507051605 53 28 3.5 7.0 0.00 0.00 0.00 72 1012.2
20260507051501 53 338 3.5 7.0 0.00 0.00 0.00 72 1012.2
20260507050100 53 49 3.5 8.7 0.00 0.00 0.00 71 1012.2
20260507050002 53 50 3.5 8.7 0.00 0.00 0.00 71 1012.2
20260507044601 53 7 3.5 7.8 0.00 0.00 0.00 71 1012.2
20260507043103 52 12 3.5 8.7 0.00 0.00 0.00 71 1012.2
20260507041600 52 25 3.5 8.7 0.00 0.00 0.00 71 1012.2
20260507040059 52 13 1.7 8.7 0.00 0.00 0.00 71 1012.2
20260507040002 52 63 3.5 8.7 0.00 0.00 0.00 71 1012.2
20260507034601 52 68 2.6 7.8 0.00 0.00 0.00 70 1012.3
20260507033100 52 25 3.5 7.8 0.00 0.00 0.00 70 1012.2
20260507031559 52 23 4.3 7.8 0.00 0.00 0.00 69 1012.1
20260507030100 52 15 4.3 9.6 0.00 0.00 0.00 68 1012.2
20260507030001 52 30 5.2 9.6 0.00 0.00 0.00 68 1012.2
20260507024630 53 29 3.5 10.4 0.00 0.00 0.00 68 1012.2
20260507023100 53 359 5.2 7.8 0.00 0.00 0.00 67 1012.2
20260507021601 53 7 3.5 7.0 0.00 0.00 0.00 65 1012.2
20260507020111 54 7 1.7 7.0 0.00 0.00 0.00 63 1012.2
20260507014608 54 3 2.6 6.1 0.00 0.00 0.00 62 1012.1
20260507013058 54 93 4.3 7.8 0.00 0.00 0.00 61 1012.1
20260507011603 55 105 1.7 7.0 0.00 0.00 0.00 60 1012.2
20260507010059 55 75 5.2 8.7 0.00 0.00 0.00 59 1012.3
20260507010001 55 56 5.2 8.7 0.00 0.00 0.00 59 1012.3
20260507004600 55 36 4.3 10.4 0.00 0.00 0.00 58 1012.3
20260507003059 55 45 6.1 13.0 0.00 0.00 0.00 57 1012.4
20260507001602 56 34 5.2 10.4 0.00 0.00 0.00 56 1012.3
20260507000100 56 25 5.2 11.3 0.00 0.00 0.00 54 1012.1
20260507000002 56 65 4.3 11.3 0.00 0.00 0.00 54 1012.1
20260506234605 57 22 7.0 12.2 0.00 0.00 0.00 51 1012.1
20260506233101 57 41 3.5 9.6 0.00 0.00 0.00 48 1012.1
20260506231601 58 8 3.5 7.8 0.00 0.00 0.00 46 1012.0
20260506230002 59 34 4.3 7.0 0.00 0.00 0.00 44 1012.0
20260506224501 59 22 0.9 4.3 0.00 0.00 0.00 40 1012.0
20260506223001 60 38 2.6 4.3 0.00 0.00 0.00 38 1012.0
20260506221501 61 113 1.7 4.3 0.00 0.00 0.00 36 1011.9
20260506220002 61 63 0.9 3.5 0.00 0.00 0.00 35 1012.0
20260506214600 61 71 1.7 4.3 0.00 0.00 0.00 36 1012.1
20260506214502 61 56 1.7 4.3 0.00 0.00 0.00 36 1012.1
20260506213140 61 72 0.9 3.5 0.00 0.00 0.00 37 1012.1
20260506211632 61 50 0.0 1.7 0.00 0.00 0.00 36 1012.1
20260506211502 61 79 0.0 1.7 0.00 0.00 0.00 36 1012.1
20260506210103 61 57 0.0 1.7 0.00 0.00 0.00 36 1012.1
20260506210002 61 58 0.0 1.7 0.00 0.00 0.00 36 1012.1
20260506204502 62 25 0.0 0.9 0.00 0.00 0.00 35 1012.0
20260506203002 62 76 0.0 0.9 0.00 0.00 0.00 33 1011.9
20260506201503 63 1 0.9 2.6 0.00 0.00 0.00 31 1011.9
20260506200005 63 25 0.0 2.6 0.00 0.00 0.00 31 1011.9
20260506194502 63 7 0.9 3.5 0.00 0.00 0.00 30 1011.8
20260506193001 63 19 0.9 2.6 0.00 0.00 0.00 30 1011.7
20260506191502 63 323 0.0 1.7 0.00 0.00 0.00 32 1011.7
20260506190002 63 194 0.0 0.9 0.00 0.00 0.00 31 1011.6
20260506184609 64 208 0.9 2.6 0.00 0.00 0.00 30 1011.5
20260506184501 64 205 0.9 2.6 0.00 0.00 0.00 30 1011.6
20260506183105 64 213 0.0 3.5 0.00 0.00 0.00 28 1011.6
20260506183001 64 213 0.0 3.5 0.00 0.00 0.00 29 1011.5
20260506181600 65 205 0.0 3.5 0.00 0.00 0.00 28 1011.5
20260506180100 65 189 1.7 6.1 0.00 0.00 0.00 29 1011.5
20260506180000 65 105 2.6 6.1 0.00 0.00 0.00 28 1011.6
20260506174503 65 320 0.9 5.2 0.00 0.00 0.00 29 1011.6
20260506173109 66 122 3.5 9.6 0.00 0.00 0.00 29 1011.7
20260506171501 66 63 2.6 7.0 0.00 0.00 0.00 29 1011.7
20260506170116 68 77 0.9 8.7 0.00 0.00 0.00 28 1011.7
20260506164603 69 122 3.5 9.6 0.00 0.00 0.00 28 1011.8
20260506164502 69 130 4.3 9.6 0.00 0.00 0.00 27 1011.8
20260506163112 70 28 0.0 3.5 0.00 0.00 0.00 28 1011.9
20260506161601 69 193 2.6 5.2 0.00 0.00 0.00 28 1011.9
20260506160113 68 200 1.7 7.8 0.00 0.00 0.00 29 1012.0
20260506160002 68 107 1.7 7.8 0.00 0.00 0.00 29 1012.0
20260506154606 67 110 4.3 8.7 0.00 0.00 0.00 29 1012.1
20260506153104 67 354 1.7 6.1 0.00 0.00 0.00 29 1012.2
20260506151607 67 233 2.6 7.8 0.00 0.00 0.00 28 1012.3
20260506150004 68 112 0.9 6.1 0.00 0.00 0.00 30 1012.4
20260506144608 67 101 1.7 5.2 0.00 0.00 0.00 29 1012.8
20260506143001 67 137 3.5 7.8 0.00 0.00 0.00 31 1012.9
20260506141601 66 326 0.9 4.3 0.00 0.00 0.00 33 1013.1
20260506140106 67 226 1.7 7.0 0.00 0.00 0.00 33 1013.4
20260506140002 67 212 2.6 7.0 0.00 0.00 0.00 33 1013.4
20260506134600 67 146 0.0 3.5 0.00 0.00 0.00 33 1013.5
20260506133103 67 211 1.7 5.2 0.00 0.00 0.00 35 1013.7
20260506131603 65 160 3.5 8.7 0.00 0.00 0.00 35 1013.8
20260506130009 65 136 2.6 8.7 0.00 0.00 0.00 37 1013.9
20260506124501 64 203 0.9 9.6 0.00 0.00 0.00 39 1014.1
20260506123100 64 212 3.5 7.8 0.00 0.00 0.00 38 1014.3
20260506123001 64 195 2.6 7.0 0.00 0.00 0.00 37 1014.3
20260506121600 63 162 2.6 7.8 0.00 0.00 0.00 38 1014.4
20260506121503 63 208 0.9 7.8 0.00 0.00 0.00 40 1014.4
20260506120100 63 158 0.0 5.2 0.00 0.00 0.00 39 1014.5
20260506120003 63 176 0.9 5.2 0.00 0.00 0.00 40 1014.5
20260506114601 63 149 0.9 6.1 0.00 0.00 0.00 41 1014.7